"Period start","avg(HW err(1)/warn(2) (#))","avg(Visibility (m))","avg(Weather code (#))","avg(Precip intensity (mm/h))","min(HW err(1)/warn(2) (#))","max(HW err(1)/warn(2) (#))","std(HW err(1)/warn(2) (#))","med(HW err(1)/warn(2) (#))","min(Visibility (m))","max(Visibility (m))","std(Visibility (m))","med(Visibility (m))","min(Weather code (#))","max(Weather code (#))","std(Weather code (#))","med(Weather code (#))","min(Precip intensity (mm/h))","max(Precip intensity (mm/h))","std(Precip intensity (mm/h))","med(Precip intensity (mm/h))"
2014-10-10 00:00:00,2,31786,0,0.00,2,2,0,2,20135,38644,7059,35806,0,0,0,0,0.00,0.00,0.00,0.00
2014-10-10 00:10:00,2,27058,0,0.00,2,2,0,2,20345,33331,4332,27156,0,0,0,0,0.00,0.00,0.00,0.00
2014-10-10 00:20:00,2,27198,0,0.00,2,2,0,2,19444,39800,6879,24716,0,0,0,0,0.00,0.00,0.00,0.00
2014-10-10 00:30:00,2,25120,0,0.00,2,2,0,2,18266,39808,5921,23518,0,0,0,0,0.00,0.00,0.00,0.00
2014-10-10 00:40:00,2,26076,0,0.00,2,2,0,2,17170,38165,6646,23788,0,0,0,0,0.00,0.00,0.00,0.00
2014-10-10 00:50:00,2,22073,0,0.00,2,2,0,2,16323,27052,3961,23098,0,0,0,0,0.00,0.00,0.00,0.00
2014-10-10 01:00:00,2,32454,0,0.00,2,2,0,2,22166,49163,7454,33630,0,0,0,0,0.00,0.00,0.00,0.00
2014-10-10 01:10:00,2,25987,0,0.00,2,2,0,2,20293,30811,3147,25552,0,0,0,0,0.00,0.00,0.00,0.00
2014-10-10 01:20:00,2,30888,0,0.00,2,2,0,2,25370,40699,4748,29257,0,0,0,0,0.00,0.00,0.00,0.00
2014-10-10 01:30:00,2,29559,0,0.00,2,2,0,2,25243,34315,3077,29782,0,0,0,0,0.00,0.00,0.00,0.00
2014-10-10 01:40:00,2,29400,0,0.00,2,2,0,2,21632,37380,4922,29408,0,0,0,0,0.00,0.00,0.00,0.00
2014-10-10 01:50:00,2,25250,0,0.00,2,2,0,2,19602,31586,3222,25753,0,0,0,0,0.00,0.00,0.00,0.00
2014-10-10 02:00:00,2,26433,0,0.00,2,2,0,2,23409,31302,2421,25828,0,0,0,0,0.00,0.00,0.00,0.00
2014-10-10 02:10:00,2,27076,0,0.00,2,2,0,2,21051,32156,3142,26860,0,0,0,0,0.00,0.00,0.00,0.00
2014-10-10 02:20:00,2,26501,0,0.00,2,2,0,2,20515,35176,4577,25395,0,0,0,0,0.00,0.00,0.00,0.00
2014-10-10 02:30:00,2,25221,0,0.00,2,2,0,2,21430,29285,2281,25413,0,0,0,0,0.00,0.00,0.00,0.00
2014-10-10 02:40:00,2,27434,0,0.00,2,2,0,2,16701,38368,6085,25908,0,0,0,0,0.00,0.00,0.00,0.00
2014-10-10 02:50:00,2,31345,0,0.00,2,2,0,2,24726,36556,4221,32460,0,0,0,0,0.00,0.00,0.00,0.00
2014-10-10 03:00:00,2,26048,0,0.00,2,2,0,2,24172,29017,1814,25644,0,0,0,0,0.00,0.00,0.00,0.00
2014-10-10 03:10:00,2,28024,0,0.00,2,2,0,2,23289,32871,2662,27957,0,0,0,0,0.00,0.00,0.00,0.00
2014-10-10 03:20:00,2,33068,0,0.00,2,2,0,2,27471,42079,4829,31186,0,0,0,0,0.00,0.00,0.00,0.00
2014-10-10 03:30:00,2,35656,0,0.00,2,2,0,2,30256,42100,3809,35382,0,0,0,0,0.00,0.00,0.00,0.00
2014-10-10 03:40:00,2,39952,0,0.00,2,2,0,2,32049,47023,4553,40537,0,0,0,0,0.00,0.00,0.00,0.00
2014-10-10 03:50:00,2,43962,0,0.00,2,2,0,2,40643,47418,2167,43402,0,0,0,0,0.00,0.00,0.00,0.00
2014-10-10 04:00:00,2,40657,0,0.00,2,2,0,2,34230,47902,3847,40535,0,0,0,0,0.00,0.00,0.00,0.00
2014-10-10 04:10:00,2,41670,0,0.00,2,2,0,2,36203,49721,4068,40640,0,0,0,0,0.00,0.00,0.00,0.00
2014-10-10 04:20:00,2,39157,0,0.00,2,2,0,2,33803,50000,4940,37332,0,0,0,0,0.00,0.00,0.00,0.00
2014-10-10 04:30:00,2,39805,0,0.00,2,2,0,2,36827,46315,3331,38440,0,0,0,0,0.00,0.00,0.00,0.00
2014-10-10 04:40:00,2,41982,0,0.00,2,2,0,2,37856,47223,2602,42914,0,0,0,0,0.00,0.00,0.00,0.00
2014-10-10 04:50:00,2,40149,0,0.00,2,2,0,2,34707,46848,4541,37696,0,0,0,0,0.00,0.00,0.00,0.00
2014-10-10 05:00:00,2,36034,0,0.00,2,2,0,2,31558,43809,3665,34998,0,0,0,0,0.00,0.00,0.00,0.00
2014-10-10 05:10:00,2,39659,0,0.00,2,2,0,2,36062,44753,2549,39304,0,0,0,0,0.00,0.00,0.00,0.00
2014-10-10 05:20:00,2,40798,0,0.00,2,2,0,2,32388,46646,4087,41856,0,0,0,0,0.00,0.00,0.00,0.00
2014-10-10 05:30:00,2,35441,0,0.00,2,2,0,2,28456,45259,5361,34363,0,0,0,0,0.00,0.00,0.00,0.00
2014-10-10 05:40:00,2,35942,0,0.00,2,2,0,2,26305,40636,3941,37266,0,0,0,0,0.00,0.00,0.00,0.00
2014-10-10 05:50:00,2,31713,0,0.00,2,2,0,2,26145,39222,4244,31144,0,0,0,0,0.00,0.00,0.00,0.00
2014-10-10 06:00:00,2,28137,0,0.00,2,2,0,2,22542,32285,2970,28184,0,0,0,0,0.00,0.00,0.00,0.00
2014-10-10 06:10:00,2,27610,0,0.00,2,2,0,2,24062,31422,2293,27618,0,0,0,0,0.00,0.00,0.00,0.00
2014-10-10 06:20:00,2,27848,0,0.00,2,2,0,2,23765,30914,2347,28204,0,0,0,0,0.00,0.00,0.00,0.00
2014-10-10 06:30:00,2,26968,0,0.00,2,2,0,2,24113,31998,2305,26220,0,0,0,0,0.00,0.00,0.00,0.00
2014-10-10 06:40:00,2,23976,0,0.00,2,2,0,2,21767,26604,1679,24093,0,0,0,0,0.00,0.00,0.00,0.00
2014-10-10 06:50:00,2,28087,0,0.00,2,2,0,2,23701,31925,2918,27834,0,0,0,0,0.00,0.00,0.00,0.00
2014-10-10 07:00:00,2,26102,0,0.00,2,2,0,2,22592,29031,2141,25293,0,0,0,0,0.00,0.00,0.00,0.00
2014-10-10 07:10:00,2,26721,0,0.00,2,2,0,2,23631,29922,1965,26411,0,0,0,0,0.00,0.00,0.00,0.00
2014-10-10 07:20:00,2,31778,0,0.00,2,2,0,2,29373,35550,2292,31094,0,0,0,0,0.00,0.00,0.00,0.00
2014-10-10 07:30:00,2,30198,0,0.00,2,2,0,2,26540,36561,2992,29404,0,0,0,0,0.00,0.00,0.00,0.00
2014-10-10 07:40:00,2,32006,0,0.00,2,2,0,2,27310,35757,2344,31261,0,0,0,0,0.00,0.00,0.00,0.00
2014-10-10 07:50:00,2,32221,0,0.00,2,2,0,2,27628,38134,2970,32367,0,0,0,0,0.00,0.00,0.00,0.00
2014-10-10 08:00:00,2,35829,0,0.00,2,2,0,2,30671,39274,2971,36747,0,0,0,0,0.00,0.00,0.00,0.00
2014-10-10 08:10:00,2,34823,0,0.00,2,2,0,2,30282,42593,3356,33813,0,0,0,0,0.00,0.00,0.00,0.00
2014-10-10 08:20:00,2,31025,0,0.00,2,2,0,2,26089,38540,3729,30714,0,0,0,0,0.00,0.00,0.00,0.00
2014-10-10 08:30:00,2,29894,0,0.00,2,2,0,2,25520,36558,3178,29436,0,0,0,0,0.00,0.00,0.00,0.00
2014-10-10 08:40:00,2,22015,0,0.00,2,2,0,2,19171,26949,2701,21246,0,0,0,0,0.00,0.00,0.00,0.00
2014-10-10 08:50:00,2,19001,37,0.00,2,2,0,2,14903,25279,2679,18864,0,77,32,40,0.00,0.00,0.00,0.00
2014-10-10 09:00:00,2,12644,74,0.01,2,2,0,2,9824,15659,1830,12558,71,77,3,74,0.00,0.05,0.02,0.00
2014-10-10 09:10:00,2,11409,76,0.02,2,2,0,2,9913,12813,960,11239,71,77,2,77,0.00,0.05,0.02,0.00
2014-10-10 09:20:00,2,9915,76,0.09,2,2,0,2,8882,11368,834,9734,71,77,2,77,0.00,0.25,0.06,0.10
2014-10-10 09:30:00,2,9234,72,0.07,2,2,0,2,7930,10684,976,9216,71,77,2,71,0.00,0.15,0.05,0.05
2014-10-10 09:40:00,2,7656,77,0.10,2,2,0,2,7082,8297,378,7640,77,77,0,77,0.05,0.15,0.04,0.10
2014-10-10 09:50:00,2,7443,75,0.10,2,2,0,2,6311,8248,552,7456,71,77,3,77,0.05,0.30,0.07,0.10
2014-10-10 10:00:00,2,7480,73,0.09,2,2,0,2,6692,8502,565,7413,71,77,3,71,0.05,0.30,0.08,0.05
2014-10-10 10:10:00,2,8289,76,0.08,2,2,0,2,7312,9282,626,8272,71,77,2,77,0.05,0.15,0.03,0.08
2014-10-10 10:20:00,2,8456,75,0.06,2,2,0,2,7979,8906,342,8459,71,77,3,77,0.05,0.10,0.02,0.05
2014-10-10 10:30:00,2,7359,75,0.09,2,2,0,2,6564,8303,502,7366,71,77,3,77,0.05,0.15,0.03,0.10
2014-10-10 10:40:00,2,7392,76,0.11,2,2,0,2,6666,8203,403,7360,71,77,2,77,0.05,0.30,0.09,0.05
2014-10-10 10:50:00,2,8061,71,0.20,2,2,0,2,7421,8777,478,8011,71,71,0,71,0.05,0.60,0.15,0.15
2014-10-10 11:00:00,2,8713,71,0.15,2,2,0,2,7385,10690,834,8669,71,71,0,71,0.10,0.35,0.08,0.10
2014-10-10 11:10:00,2,8265,71,0.36,2,2,0,2,6232,11554,1419,8014,71,71,0,71,0.05,0.55,0.17,0.42
2014-10-10 11:20:00,2,8428,71,0.28,2,2,0,2,6661,10415,1426,7992,71,71,0,71,0.05,0.50,0.13,0.28
2014-10-10 11:30:00,2,11468,71,0.13,2,2,0,2,7449,16770,2791,10726,71,71,0,71,0.00,0.35,0.13,0.05
2014-10-10 11:40:00,2,7276,71,0.47,2,2,0,2,4923,13966,2424,6646,71,71,0,71,0.00,1.20,0.35,0.35
2014-10-10 11:50:00,2,6918,71,0.37,2,2,0,2,5536,7695,615,6905,71,71,0,71,0.25,0.50,0.09,0.35
2014-10-10 12:00:00,2,7502,71,0.30,2,2,0,2,5759,10699,1652,7165,71,71,0,71,0.15,0.60,0.13,0.28
2014-10-10 12:10:00,2,8724,71,0.30,2,2,0,2,8068,9421,512,8840,71,71,0,71,0.15,0.55,0.11,0.28
2014-10-10 12:20:00,2,7296,71,0.74,2,2,0,2,5872,8693,938,7310,71,71,0,71,0.25,1.40,0.39,0.70
2014-10-10 12:30:00,2,10324,71,0.29,2,2,0,2,9158,12855,1204,9896,71,71,0,71,0.05,0.65,0.16,0.25
2014-10-10 12:40:00,2,16386,71,0.01,2,2,0,2,14412,19239,1592,16375,71,71,0,71,0.00,0.05,0.02,0.00
2014-10-10 12:50:00,2,15956,72,0.03,2,2,0,2,13255,19159,1731,16385,71,77,2,71,0.00,0.15,0.05,0.00
2014-10-10 13:00:00,2,17299,73,0.01,2,2,0,2,14439,19717,1665,17614,71,77,3,71,0.00,0.05,0.02,0.00
2014-10-10 13:10:00,2,17163,74,0.00,2,2,0,2,15315,18283,935,17617,71,77,3,74,0.00,0.00,0.00,0.00
2014-10-10 13:20:00,2,19275,74,0.01,2,2,0,2,16716,23654,1925,19128,71,77,3,74,0.00,0.05,0.02,0.00
2014-10-10 13:30:00,2,20964,22,0.00,2,2,0,2,18578,22007,1026,21349,0,77,33,0,0.00,0.00,0.00,0.00
2014-10-10 13:40:00,2,21243,36,0.00,2,2,0,2,17959,23970,1723,21620,0,77,36,36,0.00,0.00,0.00,0.00
2014-10-10 13:50:00,2,21767,0,0.00,2,2,0,2,19262,24932,1696,21638,0,0,0,0,0.00,0.00,0.00,0.00
2014-10-10 14:00:00,2,21241,0,0.00,2,2,0,2,18475,23815,1430,21350,0,0,0,0,0.00,0.00,0.00,0.00
2014-10-10 14:10:00,2,22565,0,0.00,2,2,0,2,21111,25221,1280,22760,0,0,0,0,0.00,0.00,0.00,0.00
2014-10-10 14:20:00,2,23104,0,0.00,2,2,0,2,21465,26187,1605,22418,0,0,0,0,0.00,0.00,0.00,0.00
2014-10-10 14:30:00,2,22475,0,0.00,2,2,0,2,20874,26054,1505,21883,0,0,0,0,0.00,0.00,0.00,0.00
2014-10-10 14:40:00,2,20878,15,0.01,2,2,0,2,15980,25025,2936,21449,0,71,24,0,0.00,0.05,0.02,0.00
2014-10-10 14:50:00,2,16430,71,0.08,2,2,0,2,12638,20834,2396,16576,71,71,0,71,0.00,0.25,0.10,0.03
2014-10-10 15:00:00,2,17805,71,0.04,2,2,0,2,10453,21915,3444,18767,71,71,0,71,0.00,0.10,0.04,0.03
2014-10-10 15:10:00,2,20989,36,0.01,2,2,0,2,11726,24027,3328,21540,0,71,36,36,0.00,0.10,0.03,0.00
2014-10-10 15:20:00,2,21994,28,0.00,2,2,0,2,19769,25265,1671,21618,0,71,35,0,0.00,0.00,0.00,0.00
2014-10-10 15:30:00,2,22014,0,0.00,2,2,0,2,18233,25657,2205,22086,0,0,0,0,0.00,0.00,0.00,0.00
2014-10-10 15:40:00,2,21481,44,0.03,2,2,0,2,17136,24991,2152,21349,0,71,31,56,0.00,0.20,0.06,0.00
2014-10-10 15:50:00,2,20930,75,0.03,2,2,0,2,15247,28052,4359,21739,71,77,3,77,0.00,0.20,0.06,0.00
2014-10-10 16:00:00,2,15003,71,0.16,2,2,0,2,10165,17753,2127,14696,71,71,0,71,0.00,0.45,0.15,0.08
2014-10-10 16:10:00,2,14342,71,0.14,2,2,0,2,10323,21228,2836,13894,71,71,0,71,0.00,0.40,0.14,0.10
2014-10-10 16:20:00,2,13365,71,0.15,2,2,0,2,11262,14978,1206,13722,71,71,0,71,0.00,0.55,0.17,0.05
2014-10-10 16:30:00,2,12954,71,0.12,2,2,0,2,11466,15113,1282,12434,71,71,0,71,0.00,0.30,0.10,0.10
2014-10-10 16:40:00,2,16850,71,0.06,2,2,0,2,11726,21685,3728,17319,71,71,0,71,0.00,0.25,0.09,0.00
2014-10-10 16:50:00,2,23131,75,0.00,2,2,0,2,21602,25412,1207,22854,71,77,3,77,0.00,0.00,0.00,0.00
2014-10-10 17:00:00,2,23860,22,0.00,2,2,0,2,21725,26890,1482,23661,0,77,33,0,0.00,0.00,0.00,0.00
2014-10-10 17:10:00,2,21797,0,0.00,2,2,0,2,20003,24038,1284,21544,0,0,0,0,0.00,0.00,0.00,0.00
2014-10-10 17:20:00,2,21035,0,0.00,2,2,0,2,18776,24306,1521,20625,0,0,0,0,0.00,0.00,0.00,0.00
2014-10-10 17:30:00,2,19596,0,0.00,2,2,0,2,18186,20647,838,19584,0,0,0,0,0.00,0.00,0.00,0.00
2014-10-10 17:40:00,2,14708,22,0.00,2,2,0,2,12463,17295,1397,14698,0,71,29,0,0.00,0.00,0.00,0.00
2014-10-10 17:50:00,2,19790,30,0.00,2,2,0,2,17875,21775,1481,19680,0,77,36,0,0.00,0.00,0.00,0.00
2014-10-10 18:00:00,2,20173,0,0.00,2,2,0,2,19367,22092,775,20053,0,0,0,0,0.00,0.00,0.00,0.00
2014-10-10 18:10:00,2,19057,0,0.00,2,2,0,2,17438,21337,1375,18992,0,0,0,0,0.00,0.00,0.00,0.00
2014-10-10 18:20:00,2,17780,0,0.00,2,2,0,2,16630,19095,816,17458,0,0,0,0,0.00,0.00,0.00,0.00
2014-10-10 18:30:00,2,17851,0,0.00,2,2,0,2,16668,19281,860,17822,0,0,0,0,0.00,0.00,0.00,0.00
2014-10-10 18:40:00,2,16337,0,0.00,2,2,0,2,15203,17572,691,16186,0,0,0,0,0.00,0.00,0.00,0.00
2014-10-10 18:50:00,2,16713,0,0.00,2,2,0,2,15256,17844,797,16913,0,0,0,0,0.00,0.00,0.00,0.00
2014-10-10 19:00:00,2,16546,0,0.00,2,2,0,2,14102,18533,1145,16450,0,0,0,0,0.00,0.00,0.00,0.00
2014-10-10 19:10:00,2,14607,0,0.00,2,2,0,2,12966,16405,1029,14636,0,0,0,0,0.00,0.00,0.00,0.00
2014-10-10 19:20:00,2,13882,49,0.01,2,2,0,2,11786,17472,1551,13706,0,77,29,56,0.00,0.05,0.02,0.00
2014-10-10 19:30:00,2,13236,74,0.07,2,2,0,2,10120,15506,1455,13693,71,77,3,74,0.00,0.25,0.08,0.05
2014-10-10 19:40:00,2,19293,73,0.00,2,2,0,2,15887,23182,2595,18862,71,77,3,71,0.00,0.00,0.00,0.00
2014-10-10 19:50:00,2,21747,8,0.00,2,2,0,2,19810,24378,1480,21437,0,77,23,0,0.00,0.00,0.00,0.00
2014-10-10 20:00:00,2,23868,0,0.00,2,2,0,2,21524,25746,1273,24540,0,0,0,0,0.00,0.00,0.00,0.00
2014-10-10 20:10:00,2,22471,0,0.00,2,2,0,2,19382,28048,2315,22110,0,0,0,0,0.00,0.00,0.00,0.00
2014-10-10 20:20:00,2,22610,0,0.00,2,2,0,2,20126,24365,1311,22702,0,0,0,0,0.00,0.00,0.00,0.00
2014-10-10 20:30:00,2,19163,22,0.00,2,2,0,2,15217,24501,3353,17968,0,71,29,0,0.00,0.00,0.00,0.00
2014-10-10 20:40:00,2,13628,71,0.04,2,2,0,2,11796,15003,1028,13681,71,71,0,71,0.00,0.15,0.05,0.00
2014-10-10 20:50:00,2,12912,71,0.03,2,2,0,2,9388,17128,2180,12753,71,71,0,71,0.00,0.10,0.03,0.00
2014-10-10 21:00:00,2,11704,72,0.06,2,2,0,2,9617,14780,1408,11645,71,77,2,71,0.00,0.25,0.08,0.03
2014-10-10 21:10:00,2,14819,67,0.00,2,2,0,2,13584,16205,792,14592,0,77,22,74,0.00,0.00,0.00,0.00
2014-10-10 21:20:00,2,18386,0,0.00,2,2,0,2,16150,20914,1556,18694,0,0,0,0,0.00,0.00,0.00,0.00
2014-10-10 21:30:00,2,22965,0,0.00,2,2,0,2,20990,27354,1675,22466,0,0,0,0,0.00,0.00,0.00,0.00
2014-10-10 21:40:00,2,24334,0,0.00,2,2,0,2,21536,27511,1725,24454,0,0,0,0,0.00,0.00,0.00,0.00
2014-10-10 21:50:00,2,24366,0,0.00,2,2,0,2,21972,26214,1111,24330,0,0,0,0,0.00,0.00,0.00,0.00
2014-10-10 22:00:00,2,25152,0,0.00,2,2,0,2,21669,28943,2252,24730,0,0,0,0,0.00,0.00,0.00,0.00
2014-10-10 22:10:00,2,24821,0,0.00,2,2,0,2,21752,27702,1977,24878,0,0,0,0,0.00,0.00,0.00,0.00
2014-10-10 22:20:00,2,25260,0,0.00,2,2,0,2,21341,27960,2023,25346,0,0,0,0,0.00,0.00,0.00,0.00
2014-10-10 22:30:00,2,24745,0,0.00,2,2,0,2,20788,28504,2160,25109,0,0,0,0,0.00,0.00,0.00,0.00
2014-10-10 22:40:00,2,26537,0,0.00,2,2,0,2,23443,31503,2279,25804,0,0,0,0,0.00,0.00,0.00,0.00
2014-10-10 22:50:00,2,25615,0,0.00,2,2,0,2,22614,30513,2288,25960,0,0,0,0,0.00,0.00,0.00,0.00
2014-10-10 23:00:00,2,27061,0,0.00,2,2,0,2,23657,32398,2633,27498,0,0,0,0,0.00,0.00,0.00,0.00
2014-10-10 23:10:00,2,27404,0,0.00,2,2,0,2,21384,36585,4334,26755,0,0,0,0,0.00,0.00,0.00,0.00
2014-10-10 23:20:00,2,25868,0,0.00,2,2,0,2,22796,28562,2095,26379,0,0,0,0,0.00,0.00,0.00,0.00
2014-10-10 23:30:00,2,26663,0,0.00,2,2,0,2,23675,30350,2232,26460,0,0,0,0,0.00,0.00,0.00,0.00
2014-10-10 23:40:00,2,26762,0,0.00,2,2,0,2,21282,30170,2672,28009,0,0,0,0,0.00,0.00,0.00,0.00
2014-10-10 23:50:00,2,26154,0,0.00,2,2,0,2,21950,31306,2722,25752,0,0,0,0,0.00,0.00,0.00,0.00
